Location: State Camp
(41.2367°N, 77.7828°W)
Time: 13:53:25
(UTC-04:00)

Amateur Radio Satellites - All Passes

Search period start: 30 September 2014 13:23
Search period end: 01 October 2014 13:23
Location: State Camp, 41.2367°N, 77.7828°W

Satellite Date Start Highest point End Downlink Frequencies (MHz)
Time Altitude Azimuth
AO-Echo 30 Sep 13:25:51 13:29:23 22° 65° (ENE) 13:32:57 ?
Gurwin Techsat 1B 30 Sep 13:38:18 13:40:56 14° 59° (ENE) 13:43:35 435.225 FM
Saudisat 1A 30 Sep 13:46:32 13:49:34 19° 111° (ESE) 13:52:37 436.775 MHz
JAS-1B 30 Sep 13:55:29 14:03:02 61° 72° (ENE) 14:09:23 435.800 - 435.900 CW/SSB
Oscar 19 30 Sep 14:06:09 14:11:20 74° 257° (WSW) 14:16:33 437.125 CW, 437.150 USB
TMSAT-1 30 Sep 14:06:23 14:09:56 19° 62° (ENE) 14:13:30 436.925 FM
ITAMSAT 1 30 Sep 14:16:15 14:21:19 60° 72° (ENE) 14:26:26 435.822 SSB
Uribyol 2 30 Sep 14:17:16 14:22:23 65° 73° (ENE) 14:27:34 436.500 FM
Oscar 16 30 Sep 14:48:00 14:52:30 30° 264° (W) 14:57:02 437.025 USB, Beacon 2401.1428
AO-27 30 Sep 14:54:31 14:59:37 60° 259° (WSW) 15:04:46 436.795 MHz FM
AO-7 30 Sep 14:56:59 15:03:26 26° 54° (NE) 15:09:52 29.400 - 29.500 MHz
AO-Echo 30 Sep 15:03:32 15:07:55 39° 262° (W) 15:12:21 ?
RS-15 30 Sep 15:07:34 15:11:17 12° 265° (W) 15:15:03 29.354 - 29.394 USB, Beacon 29.352 USB
Gurwin Techsat 1B 30 Sep 15:14:53 15:20:11 82° 257° (WSW) 15:25:32 435.225 FM
Saudisat 1A 30 Sep 15:24:33 15:28:47 47° 308° (NW) 15:33:04 436.775 MHz
TMSAT-1 30 Sep 15:44:09 15:49:22 60° 259° (W) 15:54:37 436.925 FM
JAS-1B 30 Sep 15:47:55 15:53:52 24° 265° (W) 15:59:09 435.800 - 435.900 CW/SSB
KITSAT 1 30 Sep 15:55:47 15:59:41 14° 99° (E) 16:03:34 435.175 FM
MaSat-1 30 Sep 15:57:19 16:00:42 68° 247° (WSW) 16:03:35 437.345 MHz
ITAMSAT 1 30 Sep 15:58:01 16:01:12 16° 269° (W) 16:04:26 435.822 SSB
Uribyol 2 30 Sep 15:59:24 16:02:19 15° 269° (W) 16:05:15 436.500 FM
Uosat F 30 Sep 16:23:33 16:28:26 57° 72° (ENE) 16:33:20 435.120 FM
AO-7 30 Sep 16:47:08 16:55:26 76° 254° (WSW) 17:03:45 29.400 - 29.500 MHz
JAS-2 30 Sep 17:17:30 17:21:59 31° 66° (ENE) 17:26:40 435.800 - 435.900 CW/SSB, 435.910 FM
Hamsat 30 Sep 17:39:18 17:43:13 34° 71° (ENE) 17:47:08 145.90 MHz
KITSAT 1 30 Sep 17:45:41 17:53:44 78° 117° (ESE) 18:01:50 435.175 FM
Uosat F 30 Sep 18:04:28 18:07:34 16° 268° (W) 18:10:41 435.120 FM
OPAL 30 Sep 18:07:49 18:12:55 67° 104° (ESE) 18:17:54 ?
Sapphire 30 Sep 18:18:32 18:23:10 27° 49° (NE) 18:27:46 437.095 MHz 1200 baud AX-25 AFSK
Oscar 10/S400 30 Sep 18:31:35 18:50:48 57° 167° (SSE) 20:23:04 145.825 - 145.975 CW/USB, Beacon 145.810 USB
SO-50 30 Sep 18:36:18 18:37:42 11° 107° (ESE) 18:39:06 436.795 FM
SO-67 30 Sep 18:42:10 18:44:39 19° 69° (ENE) 18:47:09 435.3500 MHz FM
PCSat 30 Sep 18:43:54 18:49:07 45° 54° (NE) 18:54:17 145.825 MHz
AO-7 30 Sep 18:45:40 18:49:28 14° 272° (W) 18:53:17 29.400 - 29.500 MHz
JAS-2 30 Sep 19:02:33 19:07:05 31° 265° (W) 19:11:48 435.800 - 435.900 CW/SSB, 435.910 FM
STRAND 1 30 Sep 19:09:00 19:13:03 23° 94° (E) 19:17:04 ?
Hamsat 30 Sep 19:16:00 19:19:15 21° 267° (W) 19:22:30 145.90 MHz
KITSAT 1 30 Sep 19:43:08 19:49:57 29° 319° (NW) 19:56:49 435.175 FM
OPAL 30 Sep 19:48:08 19:51:13 16° 301° (WNW) 19:54:18 ?
HO-68 30 Sep 19:50:37 19:56:00 24° 57° (ENE) 20:01:23 435.675 MHz FM
Sapphire 30 Sep 20:01:36 20:06:48 47° 247° (WSW) 20:11:57 437.095 MHz 1200 baud AX-25 AFSK
SO-50 30 Sep 20:13:05 20:17:33 76° 304° (NW) 20:22:11 436.795 FM
SO-67 30 Sep 20:14:43 20:17:31 23° 265° (W) 20:20:21 435.3500 MHz FM
PCSat 30 Sep 20:27:49 20:32:16 26° 252° (WSW) 20:36:41 145.825 MHz
UOSAT-12 30 Sep 20:44:42 20:48:08 21° 111° (ESE) 20:51:38 437.025 FM, 437.400 FM
STRAND 1 30 Sep 20:47:32 20:52:23 43° 290° (WNW) 20:57:13 ?
Oscar 11 30 Sep 21:30:48 21:34:44 34° 70° (ENE) 21:38:42 145.825 FM, Beacon 2401.500 USB
ISS 30 Sep 21:31:46 21:32:54 11° 129° (SE) 21:34:01 145.800 FM
HO-68 30 Sep 21:35:55 21:43:02 71° 256° (WSW) 21:50:12 435.675 MHz FM
PANSAT 30 Sep 21:41:43 21:43:17 12° 177° (S) 21:44:50 not established
KITSAT 1 30 Sep 21:45:59 21:48:40 12° 348° (NNW) 21:51:21 435.175 FM
FUNcube-1 30 Sep 21:54:00 21:57:47 27° 68° (ENE) 22:01:39 145.950 - 145.970 MHz USB
SO-50 30 Sep 21:56:48 21:58:57 13° 324° (NW) 22:01:07 436.795 FM
UKube-1 30 Sep 21:59:23 22:03:43 85° 256° (WSW) 22:08:05 145.840 MHz, 145.915 MHz
Saudisat 1A 30 Sep 22:12:23 22:15:32 19° 42° (NE) 22:18:40 436.775 MHz
UOSAT-12 30 Sep 22:23:29 22:27:57 46° 308° (NW) 22:32:31 437.025 FM, 437.400 FM
ZACube-1 30 Sep 22:38:12 22:42:44 78° 76° (ENE) 22:47:22 437.345 MHz
ISS 30 Sep 23:05:48 23:09:08 82° 325° (NW) 23:12:28 145.800 FM
Oscar 11 30 Sep 23:07:40 23:10:59 21° 266° (W) 23:14:19 145.825 FM, Beacon 2401.500 USB
PANSAT 30 Sep 23:22:30 23:22:39 10° 190° (S) 23:22:47 not established
FUNcube-1 30 Sep 23:30:04 23:34:03 30° 264° (W) 23:38:07 145.950 - 145.970 MHz USB
HO-68 30 Sep 23:30:19 23:31:54 11° 274° (W) 23:33:30 435.675 MHz FM
KITSAT 1 30 Sep 23:44:39 23:48:31 14° 20° (NNE) 23:52:22 435.175 FM
Saudisat 1A 30 Sep 23:51:07 23:55:28 59° 241° (WSW) 23:59:48 436.775 MHz
AO-40 01 Oct 00:35:34 01:45:22 16° 234° (SW) 03:32:51 Beacon 2401.320
ISS 01 Oct 00:43:44 00:46:14 19° 343° (NNW) 00:48:44 145.800 FM
RS-15 01 Oct 01:05:49 01:13:04 20° 100° (E) 01:20:13 29.354 - 29.394 USB, Beacon 29.352 USB
Oscar 16 01 Oct 01:22:37 01:24:04 11° 88° (E) 01:25:32 437.025 USB, Beacon 2401.1428
KITSAT 1 01 Oct 01:39:08 01:46:38 39° 47° (NE) 01:54:03 435.175 FM
JAS-1B 01 Oct 01:43:01 01:44:29 11° 90° (E) 01:45:58 435.800 - 435.900 CW/SSB
Oscar 19 01 Oct 02:18:02 02:22:51 39° 98° (E) 02:27:37 437.125 CW, 437.150 USB
ISS 01 Oct 02:22:04 02:23:54 14° 4° (N) 02:25:45 145.800 FM
ITAMSAT 1 01 Oct 02:29:56 02:33:53 21° 93° (E) 02:37:49 435.822 SSB
Uribyol 2 01 Oct 02:30:44 02:34:53 23° 94° (E) 02:38:59 436.500 FM
Oscar 16 01 Oct 02:58:52 03:04:03 83° 285° (WNW) 03:09:11 437.025 USB, Beacon 2401.1428
SO-50 01 Oct 03:05:13 03:08:14 16° 39° (NE) 03:11:16 436.795 FM
AO-27 01 Oct 03:07:32 03:12:36 49° 100° (E) 03:17:39 436.795 MHz FM
AO-Echo 01 Oct 03:09:46 03:14:46 64° 101° (ESE) 03:19:54 ?
RS-15 01 Oct 03:12:41 03:23:45 87° 120° (ESE) 03:34:43 29.354 - 29.394 USB, Beacon 29.352 USB
JAS-1B 01 Oct 03:30:08 03:35:50 87° 285° (WNW) 03:42:01 435.800 - 435.900 CW/SSB
Gurwin Techsat 1B 01 Oct 03:31:19 03:36:20 40° 98° (E) 03:41:18 435.225 FM
KITSAT 1 01 Oct 03:34:29 03:42:16 54° 247° (WSW) 03:50:00 435.175 FM
OPAL 01 Oct 03:46:18 03:49:31 17° 59° (ENE) 03:52:43 ?
Oscar 19 01 Oct 03:57:48 04:01:59 26° 295° (WNW) 04:06:08 437.125 CW, 437.150 USB
ISS 01 Oct 03:58:32 04:01:26 27° 24° (NNE) 04:04:20 145.800 FM
TMSAT-1 01 Oct 03:59:57 04:05:11 55° 100° (E) 04:10:22 436.925 FM
ITAMSAT 1 01 Oct 04:08:36 04:13:36 47° 290° (WNW) 04:18:34 435.822 SSB
Uribyol 2 01 Oct 04:09:34 04:14:30 43° 290° (WNW) 04:19:25 436.500 FM
Uosat F 01 Oct 04:32:23 04:35:42 17° 92° (E) 04:38:59 435.120 FM
Oscar 16 01 Oct 04:41:10 04:42:33 11° 302° (WNW) 04:43:57 437.025 USB, Beacon 2401.1428
SO-50 01 Oct 04:44:36 04:49:26 87° 238° (WSW) 04:54:19 436.795 FM
AO-27 01 Oct 04:47:51 04:51:46 22° 296° (WNW) 04:55:40 436.795 MHz FM
AO-7 01 Oct 04:49:02 04:56:34 37° 98° (E) 05:04:04 29.400 - 29.500 MHz
AO-Echo 01 Oct 04:49:58 04:53:03 17° 297° (WNW) 04:56:10 ?
Gurwin Techsat 1B 01 Oct 05:11:43 05:16:05 26° 295° (WNW) 05:20:25 435.225 FM
UOSAT-12 01 Oct 05:13:31 05:17:13 22° 43° (NE) 05:20:53 437.025 FM, 437.400 FM
OPAL 01 Oct 05:22:37 05:27:48 70° 256° (WSW) 05:33:02 ?
JAS-1B 01 Oct 05:23:47 05:25:45 12° 304° (WNW) 05:27:44 435.800 - 435.900 CW/SSB
RS-15 01 Oct 05:28:01 05:37:32 33° 327° (NNW) 05:47:09 29.354 - 29.394 USB, Beacon 29.352 USB
ISS 01 Oct 05:35:03 05:38:15 46° 221° (SW) 05:41:27 145.800 FM
MaSat-1 01 Oct 05:39:39 05:44:15 43° 110° (ESE) 05:48:41 437.345 MHz
TMSAT-1 01 Oct 05:40:53 05:44:40 20° 297° (WNW) 05:48:25 436.925 FM
JAS-2 01 Oct 06:08:51 06:14:58 35° 96° (E) 06:21:37 435.800 - 435.900 CW/SSB, 435.910 FM
Uosat F 01 Oct 06:09:53 06:14:48 54° 288° (WNW) 06:19:42 435.120 FM
STRAND 1 01 Oct 06:24:52 06:29:23 33° 68° (ENE) 06:33:56 ?
SO-50 01 Oct 06:28:58 06:29:16 10° 254° (WSW) 06:29:34 436.795 FM
AO-7 01 Oct 06:41:37 06:49:30 50° 296° (WNW) 06:57:23 29.400 - 29.500 MHz
UOSAT-12 01 Oct 06:53:05 06:57:41 53° 242° (WSW) 07:02:12 437.025 FM, 437.400 FM
Hamsat 01 Oct 07:00:26 07:04:39 71° 101° (ESE) 07:08:48 145.90 MHz
MaSat-1 01 Oct 07:16:59 07:20:53 24° 305° (NW) 07:24:36 437.345 MHz
SO-67 01 Oct 07:37:59 07:40:43 21° 95° (E) 07:43:25 435.3500 MHz FM
RS-15 01 Oct 07:47:10 07:54:43 20° 2° (N) 08:02:23 29.354 - 29.394 USB, Beacon 29.352 USB
JAS-2 01 Oct 07:53:45 08:00:01 46° 291° (WNW) 08:06:57 435.800 - 435.900 CW/SSB, 435.910 FM
STRAND 1 01 Oct 08:04:10 08:08:33 29° 264° (W) 08:13:00 ?
AO-7 01 Oct 08:37:58 08:40:20 11° 318° (NW) 08:42:41 29.400 - 29.500 MHz
Hamsat 01 Oct 08:39:03 08:40:00 11° 298° (WNW) 08:40:56 145.90 MHz
Sapphire 01 Oct 09:01:17 09:05:22 22° 107° (ESE) 09:09:29 437.095 MHz 1200 baud AX-25 AFSK
HO-68 01 Oct 09:04:40 09:10:03 22° 92° (E) 09:15:24 435.675 MHz FM
SO-67 01 Oct 09:11:01 09:13:37 20° 290° (WNW) 09:16:13 435.3500 MHz FM
PCSat 01 Oct 09:25:45 09:30:44 40° 111° (ESE) 09:35:46 145.825 MHz
UKube-1 01 Oct 09:48:49 09:51:35 16° 93° (E) 09:54:20 145.840 MHz, 145.915 MHz
RS-15 01 Oct 10:01:47 10:11:43 36° 36° (NE) 10:21:54 29.354 - 29.394 USB, Beacon 29.352 USB
ZACube-1 01 Oct 10:29:01 10:31:48 16° 91° (E) 10:34:32 437.345 MHz
Sapphire 01 Oct 10:43:09 10:48:24 51° 304° (NW) 10:53:43 437.095 MHz 1200 baud AX-25 AFSK
HO-68 01 Oct 10:51:09 10:58:17 69° 290° (WNW) 11:05:24 435.675 MHz FM
Oscar 11 01 Oct 10:54:01 10:58:21 70° 102° (ESE) 11:02:38 145.825 FM, Beacon 2401.500 USB
PCSat 01 Oct 11:09:27 11:14:14 31° 310° (NW) 11:19:03 145.825 MHz
FUNcube-1 01 Oct 11:18:44 11:23:13 54° 100° (E) 11:27:34 145.950 - 145.970 MHz USB
UKube-1 01 Oct 11:23:50 11:28:00 44° 289° (WNW) 11:32:08 145.840 MHz, 145.915 MHz
ZACube-1 01 Oct 12:04:05 12:08:30 49° 288° (WNW) 12:12:47 437.345 MHz
RS-15 01 Oct 12:14:08 12:25:17 81° 241° (WSW) 12:36:55 29.354 - 29.394 USB, Beacon 29.352 USB
JAS-1B 01 Oct 12:28:42 12:32:05 14° 58° (ENE) 12:35:16 435.800 - 435.900 CW/SSB
Sapphire 01 Oct 12:32:01 12:33:09 11° 325° (NW) 12:34:18 437.095 MHz 1200 baud AX-25 AFSK
Oscar 11 01 Oct 12:32:31 12:33:56 11° 298° (WNW) 12:35:21 145.825 FM, Beacon 2401.500 USB
Oscar 16 01 Oct 12:38:36 12:42:06 19° 62° (ENE) 12:45:38 437.025 USB, Beacon 2401.1428
HO-68 01 Oct 12:41:21 12:44:42 14° 309° (NW) 12:48:03 435.675 MHz FM
FUNcube-1 01 Oct 12:56:25 12:59:07 16° 297° (WNW) 13:01:47 145.950 - 145.970 MHz USB
